Location: Olsztyn
(53.7767°N, 20.4765°E)
Time: 17:21:07
(UTC+02:00)

A-11 Canister half - Pass Details

Date: 24 January 2022
Orbit: 1513 x 1686 km, 47.2° (Epoch: 24 May)

Event Time Altitude Azimuth Distance (km) Brightness Sun altitude
Rises 20:44:18 0° 272° (W) 4,694 12.3 -40.4°
Reaches altitude 10° 20:47:26 10° 268° (W) 3,696 11.5 -40.8°
Enters shadow 20:53:56 44° 237° (WSW) 2,009 9.6 -41.7°
